Temp
21 21 21 21 21 21 21 21 20 21 21 20 20 20 20 20 20 19 19 19 19 19 19 19 20 20 21 21 21 21 21 21 21 21 21 20 20 20 20 20 20 20 20
21 21 21 21 21 21 21 21 21 21 21 20 21 20 20 20 20 19 19 19 19 19 19 19 20 22 22 21 21 21 21 21 21 21 21 21 21 20 20 20 20 20 20
21 21 21 21 21 21 21 21 21 21 21 20 20 20 20 20 20 20 19 19 19 19 20 21 21 21 21 21 21 21 21 22 21 20 21 21 21 20 20 20 20 20 20
22 21 21 22 21 21 21 21 21 21 21 20 20 20 20 20 20 20 20 20 21 21 21 21 21 21 21 21 21 21 21 21 21 21 21 21 21 20 20 20 20 20 20
21 21 21 21 21 21 21 21 21 21 21 21 21 21 21 20 20 20 20 20 20 21 21 21 21 21 21 21 21 21 21 21 21 22 21 21 20 20 20 20 20 20 20
21 21 21 21 21 21 21 21 21 21 21 21 21 21 21 21 21 21 20 21 21 21 21 21 21 21 21 21 21 22 21 21 21 22 22 21 21 20 20 20 20 20 20
22 21 21 21 21 21 21 21 21 21 21 21 21 21 21 21 21 21 21 21 21 21 21 21 21 21 22 22 22 22 22 22 22 22 22 22 21 21 20 20 20 20 20
22 22 22 21 21 21 21 21 21 21 21 21 21 21 21 21 21 21 21 21 21 21 21 21 21 22 23 23 22 22 22 22 22 22 23 22 21 20 20 20 20 20 20
22 23 22 21 21 21 21 21 21 21 21 21 21 21 21 21 21 21 21 21 21 21 21 22 23 23 23 23 22 23 23 23 22 22 23 22 21 20 20 20 20 20 20
22 23 22 22 22 21 21 21 21 21 21 21 21 21 21 21 21 21 21 21 21 21 22 23 24 24 24 24 24 23 23 22 23 23 22 23 21 21 20 20 20 20 20
22 23 22 23 23 22 22 21 21 21 21 21 21 21 21 21 21 21 22 21 21 21 22 22 22 23 23 24 25 24 24 23 23 23 23 23 22 21 21 22 20 20 20
22 22 23 23 23 24 23 22 22 21 21 22 22 22 22 22 22 22 22 21 21 21 21 22 23 23 23 24 24 24 25 24 24 24 24 23 23 21 21 21 21 20 20
24 23 23 23 24 24 24 23 23 22 23 23 23 23 23 22 22 22 22 22 22 22 22 21 22 23 24 25 25 24 25 25 24 24 24 24 24 22 21 21 22 21 20
24 24 24 24 24 24 24 23 23 23 23 23 23 23 23 23 23 23 23 23 23 23 23 23 23 23 23 24 25 25 25 25 25 25 24 24 24 24 21 21 22 22 20
25 24 24 24 24 24 24 24 23 24 23 23 24 23 23 23 23 23 23 23 24 24 24 24 24 24 23 24 25 24 25 25 26 25 26 25 24 24 22 21 21 21 21
25 25 25 24 25 24 24 24 24 23 24 23 24 24 24 24 24 24 24 23 23 23 24 24 23 24 24 24 24 24 25 26 25 25 25 25 25 24 24 23 22 22 20
26 26 25 25 25 25 25 25 24 24 24 24 24 24 24 24 25 24 24 24 24 24 24 24 24 24 24 25 25 25 25 25 25 25 25 25 24 24 24 23 23 23 23
26 26 26 25 25 25 25 25 24 24 24 24 24 24 24 24 24 24 25 24 24 24 24 24 24 24 24 25 25 25 25 25 25 25 24 23 23 24 23 23 22 22 22
28 27 26 26 26 25 25 25 25 25 25 24 24 24 25 25 25 25 24 25 25 25 25 25 25 25 25 25 25 25 25 25 24 24 24 23 23 23 22 23 22 21 21
28 28 27 27 26 25 25 25 25 24 25 25 24 25 25 25 25 25 25 25 25 25 25 25 25 25 25 25 24 24 24 25 23 22 24 24 24 24 22 23 23 22 22
28 27 27 27 26 26 25 25 25 25 25 24 25 25 25 25 25 25 25 25 25 24 25 24 24 24 24 25 25 25 24 23 22 22 23 23 23 23 22 23 21 21 22
28 28 28 27 26 26 26 26 26 26 26 25 25 25 25 25 25 25 24 24 24 24 25 24 24 24 24 24 24 22 20 21 23 22 22 21 22 24 24 25 23 23 22
26 28 27 27 27 26 26 26 26 25 25 25 24 25 25 25 24 24 24 24 24 24 24 24 24 24 24 24 24 23 21 20 20 23 22 22 22 23 23 25 23 23 22
27 28 28 27 26 27 27 27 26 26 25 26 25 25 25 24 23 24 24 23 23 23 23 23 23 23 23 23 23 23 23 22 20 20 23 23 23 24 24 24 24 23 22
27 27 27 27 27 27 27 26 26 26 26 26 25 25 25 24 23 23 23 22 22 22 22 22 22 22 23 23 23 23 22 22 22 21 20 21 23 25 25 24 23 22 21
27 26 27 26 26 26 26 26 26 26 25 25 25 25 24 23 23 22 22 22 22 21 21 21 22 22 22 22 22 22 22 21 21 20 20 20 20 25 25 24 24 24 23
Height
805 804 802 803 804 803 803 801 801 802 801 802 804 804 804 804 802 800 803 805 808 809 812 814 814 815 817 818 819 820 821 822 822 822 823 824 824 825 826 827 826 826 827
802 804 805 805 806 805 805 805 805 805 804 805 807 807 807 807 806 804 805 806 806 809 814 816 816 818 819 820 821 823 823 824 825 825 824 825 827 827 828 829 829 829 830
802 804 807 806 806 807 808 807 807 807 807 807 808 808 810 810 810 810 809 809 807 814 815 818 819 821 821 824 825 825 826 827 827 828 828 828 829 830 830 831 831 831 832
802 805 806 807 808 809 810 809 810 809 808 809 810 811 812 813 813 813 812 812 815 816 819 820 822 823 825 827 827 828 828 829 830 830 830 831 830 832 833 833 834 834 834
804 805 807 808 809 810 811 812 812 812 812 812 813 814 815 816 816 817 816 817 817 819 823 824 825 826 827 829 830 830 831 833 833 833 832 834 833 835 836 836 836 836 836
805 806 808 809 810 811 812 814 814 815 815 815 815 816 817 819 819 820 820 821 823 823 825 826 827 829 830 831 831 833 834 834 835 835 835 836 836 838 839 839 839 838 838
804 807 808 810 811 813 814 815 815 816 816 816 817 819 819 820 821 822 823 824 825 824 826 828 829 830 831 832 833 834 834 835 836 837 837 839 839 840 842 842 841 840 840
802 806 809 811 813 815 815 815 816 817 818 819 819 821 821 823 823 824 824 825 826 827 829 830 830 831 832 833 835 835 836 837 837 838 839 840 841 841 843 843 843 843 842
804 807 810 812 814 816 816 817 818 819 820 821 822 823 823 824 825 826 826 828 829 830 831 831 832 833 834 835 836 837 839 839 839 839 840 841 842 842 844 845 845 845 844
806 808 810 813 815 816 818 819 819 820 822 823 824 825 826 826 827 828 829 830 830 832 832 833 834 835 835 835 836 837 839 839 840 842 841 841 842 841 843 844 845 846 845
809 810 812 813 815 816 818 819 821 823 824 824 825 825 826 828 828 830 830 832 832 833 833 834 835 836 836 835 836 837 838 840 841 841 842 841 841 842 841 841 844 845 845
809 812 814 814 813 814 816 818 820 823 824 825 826 827 827 827 829 830 832 833 834 835 835 835 835 836 836 836 837 836 837 839 838 840 839 841 842 843 842 842 841 844 846
807 812 813 812 813 814 817 818 819 823 824 826 827 828 828 828 829 831 832 833 834 835 835 836 836 836 836 836 836 837 837 837 838 838 839 839 840 841 843 842 841 843 844
807 810 813 813 814 815 817 819 820 822 825 826 826 827 828 828 829 830 832 834 833 833 833 834 834 835 835 836 835 834 834 834 834 835 836 838 838 838 839 840 839 839 841
805 810 812 812 814 815 817 819 820 821 824 825 825 827 827 827 828 829 830 832 832 832 832 832 832 833 833 833 834 833 832 832 832 832 832 834 836 836 837 839 840 839 841
803 807 811 813 814 816 817 818 819 821 823 824 825 825 826 826 827 827 827 829 830 830 831 831 830 830 831 831 830 830 830 829 829 830 830 831 832 834 835 836 836 836 839
801 804 808 812 814 815 816 817 818 820 821 822 824 825 825 825 825 825 826 827 828 829 829 830 829 828 828 828 827 827 826 826 826 827 829 830 829 830 831 833 834 834 835
799 802 806 810 812 814 814 816 817 818 819 820 822 823 824 824 825 824 824 825 826 827 827 827 827 827 827 826 824 823 823 823 824 825 826 826 826 827 829 830 834 836 835
796 800 804 807 810 812 816 817 817 818 818 820 821 822 822 823 822 822 823 824 825 825 824 824 824 824 823 823 821 820 820 821 822 822 822 821 821 822 825 828 829 828 833
795 799 802 806 808 811 814 816 817 819 820 819 819 820 820 821 820 821 822 821 822 822 822 821 821 822 822 821 820 819 819 818 817 817 818 818 817 817 818 820 820 821 822
795 797 800 803 807 809 813 815 817 817 818 818 816 816 818 818 819 819 819 820 820 820 820 820 819 821 821 821 819 818 817 815 816 817 815 815 816 815 816 817 817 817 817
790 794 797 801 803 807 808 814 815 814 815 815 815 816 817 818 818 818 817 818 819 820 819 819 820 820 820 819 818 817 818 818 816 816 815 815 815 814 814 813 812 813 813
788 791 794 798 802 805 808 810 812 812 812 813 814 817 816 817 818 818 817 817 817 818 818 818 818 818 818 818 818 817 819 822 817 814 815 815 815 813 813 811 812 810 807
784 788 792 796 801 803 806 808 809 809 809 810 812 815 814 815 816 816 815 817 816 817 816 817 816 815 815 817 817 816 817 817 819 818 813 814 814 812 811 808 808 808 805
782 786 789 794 798 802 804 807 809 809 809 809 811 812 813 813 814 814 815 815 816 816 817 816 816 815 815 816 816 816 816 815 816 817 816 814 812 809 808 805 805 806 806
780 785 787 792 795 797 800 804 806 808 808 809 810 812 812 812 813 814 814 814 815 816 816 816 816 815 815 815 815 817 817 817 817 816 815 812 812 808 806 804 801 804 805
Wind_Speed
14 14 14 15 15 17 18 18 18 18 19 22 24 24 23 21 21 21 25 26 23 24 22 17 14 14 12 10 13 15 17 17 18 18 17 17 17 16 15 14 14 15 13
20 17 16 16 17 17 18 17 17 16 19 23 23 21 20 21 22 26 25 19 25 24 18 13 15 16 11 10 13 15 18 20 19 18 18 17 16 16 14 14 13 14 12
23 19 18 18 18 18 17 16 16 16 19 21 21 19 20 21 22 24 25 27 25 21 17 14 16 15 15 14 14 17 18 19 18 17 19 19 18 14 15 14 14 14 13
26 22 20 20 18 17 17 17 15 17 20 20 21 19 20 19 20 20 23 28 29 23 17 16 16 16 17 16 18 18 17 16 15 16 17 16 14 14 13 13 13 14 14
26 23 21 19 19 18 17 17 16 18 20 22 22 20 19 18 17 19 20 21 23 20 15 15 15 15 17 15 15 17 15 13 15 13 14 14 14 12 11 12 11 13 12
26 24 20 20 18 18 17 17 17 17 19 20 21 20 19 17 17 16 16 17 19 18 16 15 14 13 13 13 13 13 10 9 5 12 12 12 14 11 9 9 10 11 11
28 24 21 20 19 18 17 17 17 17 18 20 20 19 18 17 18 17 17 15 15 16 14 13 13 12 14 14 11 9 8 6 10 13 10 12 13 12 10 10 10 10 10
30 25 21 20 20 19 17 18 17 17 17 18 19 17 18 16 15 16 15 16 15 14 11 10 12 12 14 13 10 8 6 7 17 15 11 12 13 12 10 9 9 9 9
27 25 23 20 18 18 17 18 17 17 16 17 17 16 15 16 16 16 15 14 14 13 10 11 12 13 14 11 8 8 6 10 13 15 12 13 15 13 11 9 9 9 10
27 24 23 21 20 18 18 16 16 16 16 15 15 15 15 14 14 14 17 15 13 11 11 11 11 11 10 10 11 8 7 6 11 14 14 14 15 13 13 11 10 10 10
23 24 23 21 19 17 17 15 15 15 15 16 15 14 14 14 14 14 13 11 11 10 10 10 9 7 7 8 10 9 7 8 10 12 13 14 16 15 15 14 12 11 11
24 24 23 21 19 18 17 17 16 15 15 15 15 16 15 14 13 13 12 11 11 10 9 8 8 8 7 7 7 9 10 7 9 10 17 15 14 16 17 15 15 13 13
28 24 23 21 20 17 17 17 16 15 15 15 14 14 14 14 13 14 12 11 11 11 11 10 10 10 10 8 7 10 11 10 10 11 17 18 15 17 18 17 15 15 15
29 25 24 21 20 16 15 15 13 13 13 15 15 14 14 15 14 12 12 10 12 12 10 11 11 12 13 13 10 9 10 11 12 12 22 22 21 18 21 20 18 18 18
29 28 27 23 20 17 10 15 12 12 13 15 12 14 11 14 14 15 17 15 12 11 11 15 13 14 15 13 11 14 13 13 14 10 12 22 25 22 22 21 20 19 19
32 30 29 25 17 16 11 13 13 15 13 15 12 14 14 11 11 8 8 16 16 15 12 13 12 17 21 17 19 15 16 17 15 13 10 17 28 25 20 19 20 20 21
33 32 29 26 20 17 10 11 13 20 15 15 13 10 11 11 11 10 8 10 13 12 9 9 8 8 13 12 13 13 15 16 15 15 13 14 27 26 23 22 20 18 21
35 33 28 27 23 19 14 13 11 15 15 15 13 12 11 9 9 10 10 11 12 11 13 14 12 15 12 12 14 18 17 15 16 17 12 12 23 28 26 23 22 21 20
36 33 30 28 25 21 15 11 10 15 13 13 11 9 10 8 6 5 5 5 7 10 11 9 10 10 9 11 11 13 13 17 15 13 12 18 13 20 22 22 22 22 25
36 31 28 26 25 21 18 14 12 11 12 11 13 10 9 7 5 5 6 8 10 10 10 10 11 13 12 12 12 15 15 14 6 6 14 15 20 17 19 13 16 15 13
32 28 29 28 25 23 22 16 15 14 14 11 12 14 10 10 9 7 6 5 6 9 9 6 8 9 11 11 12 8 7 4 1 3 6 7 5 9 16 20 13 13 8
34 28 27 31 27 27 21 17 9 15 14 14 14 15 13 12 10 7 9 8 8 10 8 8 8 7 7 6 4 2 2 0 1 4 1 9 6 6 6 4 12 7 9
35 33 28 31 30 24 17 13 9 9 18 14 15 14 9 8 7 6 5 6 5 6 6 6 7 8 6 4 2 1 2 1 4 2 3 7 6 6 9 6 5 1 3
34 35 31 30 28 23 19 15 17 17 14 19 19 10 7 6 3 2 4 3 1 2 2 1 4 4 4 1 2 1 2 1 1 4 2 2 3 11 13 15 14 14 9
30 32 31 30 25 22 20 15 15 15 13 16 15 7 4 6 6 3 2 2 2 4 4 3 4 4 5 4 4 2 2 1 1 1 3 4 10 12 14 14 13 15 16
28 29 33 31 23 19 23 14 16 15 12 14 11 8 7 8 7 6 5 4 3 3 3 4 3 2 3 3 4 5 6 4 4 2 2 4 5 7 14 10 12 11 7
Wind_Direction
135 124 114 106 102 101 98 94 95 101 107 123 116 111 102 100 96 121 137 136 134 141 142 146 156 153 143 118 113 115 117 118 116 113 109 110 113 114 111 115 116 114 116
134 124 122 119 112 104 97 99 95 102 112 125 125 117 109 101 95 104 125 122 148 150 154 154 150 157 154 127 123 120 121 122 116 114 112 112 112 111 111 113 113 116 122
137 132 128 121 112 108 105 99 96 104 114 120 129 130 117 106 104 106 111 117 117 140 147 139 136 143 128 124 130 127 125 122 114 112 114 113 114 113 113 112 108 110 115
138 135 130 124 119 114 108 102 100 102 112 118 127 128 128 121 119 118 116 114 120 126 131 126 123 126 125 122 121 122 125 120 113 117 112 110 115 117 116 112 116 115 113
138 135 132 128 123 118 114 111 105 104 111 113 122 123 124 128 127 127 132 127 126 126 127 125 127 128 127 124 124 123 130 131 107 118 122 124 120 121 125 117 123 124 120
137 134 134 130 129 124 122 118 115 110 114 118 121 122 120 121 127 133 128 127 129 128 129 131 129 128 129 129 130 127 125 136 147 148 136 135 124 132 126 129 129 129 135
139 137 135 133 131 132 128 122 122 123 123 126 127 128 127 129 128 126 125 126 126 123 126 129 130 138 142 139 136 135 132 135 188 168 150 148 139 139 139 141 132 132 134
140 141 139 138 137 137 134 133 127 132 130 131 134 135 135 135 131 129 127 130 127 126 128 134 137 146 144 152 153 141 127 157 174 176 164 162 149 148 149 144 144 140 139
142 143 145 145 143 142 141 135 136 136 140 137 138 138 141 141 139 139 141 137 142 146 148 143 141 154 160 168 163 145 128 151 182 184 181 170 161 155 157 158 156 154 146
147 146 147 149 151 148 145 144 143 147 144 142 144 145 144 145 145 149 152 150 153 157 154 151 152 159 173 180 178 171 152 142 194 192 187 183 173 167 163 165 167 165 155
151 150 151 148 145 149 151 154 152 151 154 155 155 156 157 161 162 162 167 166 168 172 171 174 178 182 189 184 197 193 178 159 174 205 223 197 183 182 175 169 173 177 172
160 160 154 150 147 147 153 159 164 161 165 164 162 165 170 169 179 173 177 185 193 191 197 196 197 206 220 214 209 206 204 213 202 231 222 210 201 197 187 180 179 183 184
163 164 165 161 155 153 154 157 155 166 166 166 168 174 176 179 185 194 200 197 199 212 221 230 231 226 224 231 239 245 247 256 244 233 224 223 214 207 205 192 186 189 191
166 168 170 172 167 165 165 175 172 179 186 188 187 191 200 204 206 208 208 205 211 214 218 228 244 244 245 240 241 258 266 266 264 246 241 241 216 216 209 205 198 196 195
165 173 170 169 175 177 184 185 183 194 215 198 198 206 210 211 211 224 216 221 220 218 231 235 239 250 249 246 251 256 262 265 259 264 256 233 218 224 211 212 208 205 203
164 168 169 169 170 178 182 180 192 191 201 199 203 197 192 189 190 208 214 220 227 230 242 258 253 253 256 263 255 249 253 259 272 258 252 241 223 221 221 224 221 217 208
169 163 165 165 171 177 181 184 191 203 191 204 198 203 205 216 213 208 211 223 203 219 231 244 254 240 235 249 250 253 260 276 273 276 266 238 223 222 225 224 231 229 224
168 167 166 170 174 181 181 188 194 192 185 182 199 209 224 219 213 213 221 216 227 219 220 230 247 240 250 259 264 264 278 276 271 265 268 246 229 229 229 234 241 243 238
173 170 172 172 176 184 171 172 176 172 175 177 187 192 187 186 185 205 226 235 236 233 229 240 247 260 275 290 284 280 282 279 279 253 238 241 216 235 240 238 242 248 253
176 178 177 175 176 185 178 177 178 181 177 189 199 197 208 204 226 227 262 281 244 266 276 265 269 280 278 292 290 289 280 290 294 245 230 225 229 246 236 238 221 212 240
173 179 187 181 181 184 176 173 180 198 203 212 204 207 218 215 221 243 257 273 236 258 277 271 281 296 283 289 277 282 271 289 253 201 227 204 225 229 234 242 227 209 251
171 176 174 178 178 176 180 181 198 195 199 203 206 202 214 227 227 216 235 259 257 264 253 258 261 261 267 260 279 306 333 313 264 158 265 210 204 215 226 239 219 224 275
178 180 173 175 174 176 175 179 170 206 193 191 209 206 201 194 205 231 230 266 238 251 257 256 263 246 236 230 242 263 15 308 318 296 92 169 197 270 262 249 200 148 60
186 189 192 184 186 182 185 183 181 190 174 205 212 216 197 181 132 152 178 127 27 12 313 240 273 230 175 183 218 90 3 183 141 331 25 70 289 292 284 279 264 240 252
187 188 188 185 186 190 191 189 183 182 198 200 205 205 168 163 147 171 172 130 64 63 76 70 96 68 88 89 67 55 76 5 195 182 299 320 334 346 347 300 268 256 243
183 182 187 185 187 190 191 193 191 179 174 185 185 187 180 165 148 132 108 107 101 77 57 55 62 75 93 114 66 66 65 33 341 263 246 291 294 331 346 353 251 226 251